sat.trackr.live / text

‹ back to catalog

STARLINK-37553

NORAD 69820 · 2026-154B

PAYLOAD ACTIVE UNKNOWN

§ Identity

Operator
Country
US
Launch date
2026-07-05
Launch site
AFETR
Launch vehicle
Mass (kg)
RCS (m²)

Purposes: comms

External: N2YO · Heavens-Above · Gunter

§ Orbital elements

Epoch: 2026-09-19T22:23:16.952640Z

Period
93.85 min
Inclination
53.1612°
Eccentricity
0.0001237
Mean motion
15.34414124 rev/d
Perigee alt
461.8 km
Apogee alt
463.5 km
Semi-major
6,840.8 km
B*
4.5236e-4
RAAN
334.1937°
Arg perigee
86.1568°
Mean anomaly
273.9576°
Rev number
1,315

§ Raw data

STARLINK-375531 69820U 26154B   26262.93283510  .00014945  00000+0  45236-3 0  99972 69820  53.1612 334.1937 0001237  86.1568 273.9576 15.34414124 13150

JSON: /api/v1/satellites/69820 · /tle

For live sub-satellite position, see the globe view (requires WebGL).

§ Visibility from observer

Set your observer location to see the next 7 days of passes ≥ 10°. The values pass through the URL so the page stays shareable.

No JS? Fill the form by hand. The geolocation button needs JavaScript.